Time,TemperatureF,DewpointF,PressureIn,WindDirection,WindDirectionDegrees,WindSpeedMPH,WindSpeedGustMPH,Humidity,HourlyPrecipIn,Conditions,Clouds,dailyrainin,SoftwareType,DateUTC
2013-02-08 00:00:00,30.7,24.0,30.15,ENE,69,4.0,16.0,76,0.00,,---,0.02,VWS V13.01,2013-02-08 05:00:00,
2013-02-08 00:02:00,30.6,24.0,30.15,ENE,71,7.0,10.0,76,0.00,,---,0.00,VWS V13.01,2013-02-08 05:02:00,
2013-02-08 00:07:00,30.7,24.0,30.14,ENE,75,5.0,10.0,76,0.00,,---,0.00,VWS V13.01,2013-02-08 05:07:00,
2013-02-08 00:12:00,30.7,24.0,30.14,East,95,9.0,10.0,76,0.00,,---,0.00,VWS V13.01,2013-02-08 05:12:00,
2013-02-08 00:17:00,30.7,24.0,30.14,East,88,4.0,11.0,76,0.00,,---,0.00,VWS V13.01,2013-02-08 05:17:00,
2013-02-08 00:23:00,30.6,24.0,30.13,East,84,0.0,11.0,76,0.00,,---,0.00,VWS V13.01,2013-02-08 05:23:00,
2013-02-08 00:28:00,30.6,24.0,30.13,East,94,4.0,11.0,76,0.00,,---,0.00,VWS V13.01,2013-02-08 05:28:00,
2013-02-08 00:33:00,30.3,24.0,30.13,ESE,108,0.0,6.0,77,0.00,,---,0.00,VWS V13.01,2013-02-08 05:33:00,
2013-02-08 00:38:00,30.4,24.1,30.12,NNE,24,0.0,10.0,77,0.00,,---,0.00,VWS V13.01,2013-02-08 05:38:00,
2013-02-08 00:43:00,30.6,24.3,30.12,East,80,0.0,12.0,77,0.00,,---,0.00,VWS V13.01,2013-02-08 05:43:00,
2013-02-08 00:48:00,30.5,24.2,30.12,East,79,4.0,12.0,77,0.00,,---,0.00,VWS V13.01,2013-02-08 05:48:00,
2013-02-08 00:53:00,30.6,24.3,30.11,ENE,77,0.0,12.0,77,0.00,,---,0.00,VWS V13.01,2013-02-08 05:53:00,
2013-02-08 00:58:00,30.5,24.2,30.11,East,88,5.0,12.0,77,0.00,,---,0.00,VWS V13.01,2013-02-08 05:58:00,
2013-02-08 01:03:00,30.6,24.3,30.11,NNE,19,2.0,9.0,77,0.00,,---,0.00,VWS V13.01,2013-02-08 06:03:00,
2013-02-08 01:08:00,30.4,24.1,30.11,NNW,345,0.0,9.0,77,0.00,,---,0.00,VWS V13.01,2013-02-08 06:08:00,
2013-02-08 01:13:00,30.3,24.0,30.11,NNW,346,0.0,9.0,77,0.00,,---,0.00,VWS V13.01,2013-02-08 06:13:00,
2013-02-08 01:18:00,29.7,24.0,30.11,NW,325,0.0,9.0,79,0.00,,---,0.00,VWS V13.01,2013-02-08 06:18:00,
2013-02-08 01:23:00,29.9,24.2,30.10,East,96,4.0,9.0,79,0.00,,---,0.00,VWS V13.01,2013-02-08 06:23:00,
2013-02-08 01:29:00,30.3,24.3,30.10,East,80,6.0,9.0,78,0.00,,---,0.00,VWS V13.01,2013-02-08 06:29:00,
2013-02-08 01:34:00,30.4,24.4,30.09,East,84,0.0,7.0,78,0.00,,---,0.00,VWS V13.01,2013-02-08 06:34:00,
2013-02-08 01:39:00,30.6,24.6,30.08,East,88,6.0,11.0,78,0.00,,---,0.00,VWS V13.01,2013-02-08 06:39:00,
2013-02-08 01:44:00,30.6,24.6,30.08,East,84,5.0,12.0,78,0.00,,---,0.00,VWS V13.01,2013-02-08 06:44:00,
2013-02-08 01:49:00,30.8,24.8,30.08,East,101,0.0,12.0,78,0.00,,---,0.00,VWS V13.01,2013-02-08 06:49:00,
2013-02-08 01:54:00,30.9,24.9,30.08,ENE,71,2.0,12.0,78,0.00,,---,0.00,VWS V13.01,2013-02-08 06:54:00,
2013-02-08 01:59:00,30.9,24.9,30.07,East,101,8.0,12.0,78,0.00,,---,0.00,VWS V13.01,2013-02-08 06:59:00,
2013-02-08 02:04:00,31.0,25.0,30.07,ENE,75,0.0,10.0,78,0.00,,---,0.00,VWS V13.01,2013-02-08 07:04:00,
2013-02-08 02:09:00,31.0,25.0,30.06,ENE,69,5.0,10.0,78,0.00,,---,0.00,VWS V13.01,2013-02-08 07:09:00,
2013-02-08 02:14:00,31.0,25.0,30.06,ESE,114,2.0,11.0,78,0.00,,---,0.00,VWS V13.01,2013-02-08 07:14:00,
2013-02-08 02:19:00,30.9,24.9,30.06,ENE,57,0.0,11.0,78,0.00,,---,0.00,VWS V13.01,2013-02-08 07:19:00,
2013-02-08 02:24:00,30.7,24.7,30.05,ENE,78,6.0,12.0,78,0.00,,---,0.00,VWS V13.01,2013-02-08 07:24:00,
2013-02-08 02:29:00,30.6,24.9,30.04,East,101,2.0,12.0,79,0.00,,---,0.00,VWS V13.01,2013-02-08 07:29:00,
2013-02-08 02:34:00,30.6,24.9,30.04,ENE,65,8.0,10.0,79,0.00,,---,0.00,VWS V13.01,2013-02-08 07:34:00,
2013-02-08 02:40:00,30.8,25.1,30.04,NE,46,2.0,10.0,79,0.00,,---,0.00,VWS V13.01,2013-02-08 07:40:00,
2013-02-08 02:45:00,30.8,25.1,30.03,East,79,8.0,10.0,79,0.00,,---,0.00,VWS V13.01,2013-02-08 07:45:00,
2013-02-08 02:50:00,30.5,24.8,30.03,East,85,4.0,10.0,79,0.00,,---,0.00,VWS V13.01,2013-02-08 07:50:00,
2013-02-08 02:55:00,30.4,24.7,30.02,SE,134,0.0,10.0,79,0.00,,---,0.00,VWS V13.01,2013-02-08 07:55:00,
2013-02-08 03:00:00,30.6,24.9,30.02,ESE,109,8.0,10.0,79,0.00,,---,0.00,VWS V13.01,2013-02-08 08:00:00,
2013-02-08 03:05:00,30.7,25.0,30.01,East,101,16.0,16.0,79,0.00,,---,0.00,VWS V13.01,2013-02-08 08:05:00,
2013-02-08 03:10:00,30.8,25.1,30.00,East,79,12.0,16.0,79,0.00,,---,0.00,VWS V13.01,2013-02-08 08:10:00,
2013-02-08 03:15:00,30.9,25.2,30.00,East,87,0.0,19.0,79,0.00,,---,0.00,VWS V13.01,2013-02-08 08:15:00,
2013-02-08 03:20:00,31.0,25.3,30.00,East,91,5.0,19.0,79,0.00,,---,0.00,VWS V13.01,2013-02-08 08:20:00,
2013-02-08 03:25:00,30.9,25.2,30.00,NE,55,2.0,19.0,79,0.00,,---,0.00,VWS V13.01,2013-02-08 08:25:00,
2013-02-08 03:30:00,30.8,25.1,29.99,ENE,67,0.0,0.0,79,0.00,,---,0.00,VWS V13.01,2013-02-08 08:30:00,
2013-02-08 03:35:00,30.8,25.4,29.99,East,96,1.0,9.0,80,0.00,,---,0.00,VWS V13.01,2013-02-08 08:35:00,
2013-02-08 03:40:00,30.8,25.4,29.99,East,90,0.0,9.0,80,0.00,,---,0.00,VWS V13.01,2013-02-08 08:40:00,
2013-02-08 03:46:00,30.9,25.5,29.99,East,87,0.0,10.0,80,0.00,,---,0.00,VWS V13.01,2013-02-08 08:46:00,
2013-02-08 03:51:00,30.9,25.8,29.98,East,86,0.0,10.0,81,0.00,,---,0.00,VWS V13.01,2013-02-08 08:51:00,
2013-02-08 03:56:00,31.1,26.0,29.98,SE,126,6.0,10.0,81,0.00,,---,0.00,VWS V13.01,2013-02-08 08:56:00,
2013-02-08 04:01:00,31.1,26.0,29.98,ENE,60,8.0,9.0,81,0.00,,---,0.00,VWS V13.01,2013-02-08 09:01:00,
2013-02-08 04:06:00,31.2,26.4,29.97,ESE,122,0.0,11.0,82,0.00,,---,0.00,VWS V13.01,2013-02-08 09:06:00,
2013-02-08 04:11:00,31.4,26.5,29.95,ESE,108,10.0,12.0,82,0.00,,---,0.00,VWS V13.01,2013-02-08 09:11:00,
2013-02-08 04:16:00,31.6,26.8,29.95,East,87,9.0,20.0,82,0.00,,---,0.00,VWS V13.01,2013-02-08 09:16:00,
2013-02-08 04:21:00,31.7,26.8,29.96,NE,55,8.0,20.0,82,0.00,,---,0.00,VWS V13.01,2013-02-08 09:21:00,
2013-02-08 04:26:00,31.6,26.8,29.96,ESE,121,5.0,20.0,82,0.00,,---,0.00,VWS V13.01,2013-02-08 09:26:00,
2013-02-08 04:31:00,31.5,26.6,29.96,SSE,168,0.0,0.0,82,0.00,,---,0.00,VWS V13.01,2013-02-08 09:31:00,
2013-02-08 04:36:00,31.6,27.0,29.95,NE,34,0.0,7.0,83,0.00,,---,0.00,VWS V13.01,2013-02-08 09:36:00,
2013-02-08 04:41:00,31.9,27.3,29.95,ESE,107,11.0,15.0,83,0.00,,---,0.00,VWS V13.01,2013-02-08 09:41:00,
2013-02-08 04:46:00,32.1,27.5,29.94,SE,128,4.0,15.0,83,0.00,,---,0.00,VWS V13.01,2013-02-08 09:46:00,
2013-02-08 04:51:00,32.3,27.7,29.94,ENE,66,7.0,15.0,83,0.00,,---,0.00,VWS V13.01,2013-02-08 09:51:00,
2013-02-08 04:56:00,32.3,27.7,29.94,ENE,64,5.0,15.0,83,0.00,,---,0.00,VWS V13.01,2013-02-08 09:56:00,
2013-02-08 05:01:00,32.5,27.9,29.94,East,92,5.0,6.0,83,0.00,,---,0.00,VWS V13.01,2013-02-08 10:01:00,
2013-02-08 05:07:00,32.5,27.9,29.94,ENE,74,0.0,9.0,83,0.00,,---,0.00,VWS V13.01,2013-02-08 10:07:00,
2013-02-08 05:12:00,32.6,28.3,29.94,East,83,8.0,9.0,84,0.00,,---,0.00,VWS V13.01,2013-02-08 10:12:00,
2013-02-08 05:17:00,32.8,28.5,29.94,East,87,1.0,10.0,84,0.00,,---,0.00,VWS V13.01,2013-02-08 10:17:00,
2013-02-08 05:22:00,32.9,28.6,29.93,ENE,72,10.0,11.0,84,0.00,,---,0.00,VWS V13.01,2013-02-08 10:22:00,
2013-02-08 05:27:00,33.1,28.8,29.93,East,84,1.0,11.0,84,0.00,,---,0.00,VWS V13.01,2013-02-08 10:27:00,
2013-02-08 05:32:00,33.1,28.8,29.93,East,82,4.0,5.0,84,0.00,,---,0.00,VWS V13.01,2013-02-08 10:32:00,
2013-02-08 05:37:00,33.2,28.9,29.93,NE,52,5.0,6.0,84,0.00,,---,0.00,VWS V13.01,2013-02-08 10:37:00,
2013-02-08 05:42:00,33.3,29.0,29.92,NW,304,2.0,11.0,84,0.00,,---,0.00,VWS V13.01,2013-02-08 10:42:00,
2013-02-08 05:47:00,33.4,29.1,29.92,NNE,25,0.0,11.0,84,0.00,,---,0.00,VWS V13.01,2013-02-08 10:47:00,
2013-02-08 05:52:00,33.5,29.2,29.92,NE,45,2.0,12.0,84,0.00,,---,0.00,VWS V13.01,2013-02-08 10:52:00,
2013-02-08 05:57:00,33.7,29.4,29.91,ENE,74,5.0,12.0,84,0.00,,---,0.00,VWS V13.01,2013-02-08 10:57:00,
2013-02-08 06:02:00,33.8,29.5,29.91,SE,134,6.0,12.0,84,0.00,,---,0.00,VWS V13.01,2013-02-08 11:02:00,
2013-02-08 06:07:00,33.8,29.5,29.91,ENE,67,0.0,12.0,84,0.00,,---,0.00,VWS V13.01,2013-02-08 11:07:00,
2013-02-08 06:12:00,33.9,29.6,29.91,ENE,70,0.0,12.0,84,0.00,,---,0.00,VWS V13.01,2013-02-08 11:12:00,
2013-02-08 06:17:00,33.9,29.6,29.90,East,80,0.0,12.0,84,0.00,,---,0.00,VWS V13.01,2013-02-08 11:17:00,
2013-02-08 06:22:00,34.0,29.7,29.90,ENE,57,7.0,12.0,84,0.00,,---,0.00,VWS V13.01,2013-02-08 11:22:00,
2013-02-08 06:28:00,34.0,29.7,29.90,NE,36,6.0,12.0,84,0.00,,---,0.00,VWS V13.01,2013-02-08 11:28:00,
2013-02-08 06:33:00,33.9,29.9,29.89,NE,48,10.0,10.0,85,0.00,,---,0.00,VWS V13.01,2013-02-08 11:33:00,
2013-02-08 06:38:00,34.0,30.0,29.89,NE,39,1.0,13.0,85,0.00,,---,0.00,VWS V13.01,2013-02-08 11:38:00,
2013-02-08 06:43:00,34.0,30.0,29.89,ENE,57,0.0,13.0,85,0.00,,---,0.00,VWS V13.01,2013-02-08 11:43:00,
2013-02-08 06:48:00,34.1,30.1,29.88,NE,34,0.0,13.0,85,0.00,,---,0.00,VWS V13.01,2013-02-08 11:48:00,
2013-02-08 06:53:00,34.1,30.1,29.88,NE,53,7.0,13.0,85,0.00,,---,0.00,VWS V13.01,2013-02-08 11:53:00,
2013-02-08 06:58:00,34.1,30.1,29.88,ENE,65,5.0,13.0,85,0.00,,---,0.00,VWS V13.01,2013-02-08 11:58:00,
2013-02-08 07:03:00,34.2,30.2,29.88,East,83,0.0,9.0,85,0.00,,---,0.00,VWS V13.01,2013-02-08 12:03:00,
2013-02-08 07:08:00,34.2,30.2,29.87,WSW,250,9.0,10.0,85,0.00,,---,0.00,VWS V13.01,2013-02-08 12:08:00,
2013-02-08 07:13:00,34.4,30.4,29.87,North,360,0.0,10.0,85,0.00,,---,0.00,VWS V13.01,2013-02-08 12:13:00,
2013-02-08 07:18:00,34.4,30.4,29.87,NE,40,0.0,10.0,85,0.00,,---,0.00,VWS V13.01,2013-02-08 12:18:00,
2013-02-08 07:23:00,34.3,30.6,29.87,NNW,344,0.0,12.0,86,0.00,,---,0.00,VWS V13.01,2013-02-08 12:23:00,
2013-02-08 07:28:00,34.4,30.6,29.86,East,91,4.0,19.0,86,0.00,,---,0.00,VWS V13.01,2013-02-08 12:28:00,
2013-02-08 07:33:00,34.4,30.4,29.86,NE,41,7.0,7.0,85,0.00,,---,0.00,VWS V13.01,2013-02-08 12:33:00,
2013-02-08 07:38:00,34.4,30.6,29.86,NE,51,3.0,8.0,86,0.00,,---,0.00,VWS V13.01,2013-02-08 12:38:00,
2013-02-08 07:44:00,34.4,30.6,29.86,NW,322,5.0,11.0,86,0.00,,---,0.00,VWS V13.01,2013-02-08 12:44:00,
2013-02-08 07:49:00,34.4,30.6,29.86,NNW,347,8.0,11.0,86,0.00,,---,0.00,VWS V13.01,2013-02-08 12:49:00,
2013-02-08 07:54:00,34.4,30.6,29.86,West,273,5.0,11.0,86,0.00,,---,0.00,VWS V13.01,2013-02-08 12:54:00,
2013-02-08 07:59:00,34.4,30.6,29.85,NNE,22,6.0,13.0,86,0.00,,---,0.00,VWS V13.01,2013-02-08 12:59:00,
2013-02-08 08:04:00,34.5,30.5,29.85,NNW,331,4.0,7.0,85,0.00,,---,0.00,VWS V13.01,2013-02-08 13:04:00,
2013-02-08 08:09:00,34.6,30.6,29.85,NNW,342,8.0,8.0,85,0.00,,---,0.00,VWS V13.01,2013-02-08 13:09:00,
2013-02-08 08:14:00,34.7,31.0,29.85,NNW,341,7.0,13.0,86,0.00,,---,0.00,VWS V13.01,2013-02-08 13:14:00,
2013-02-08 08:19:00,34.7,30.7,29.84,North,9,2.0,13.0,85,0.00,,---,0.00,VWS V13.01,2013-02-08 13:19:00,
2013-02-08 08:24:00,34.6,30.9,29.84,NW,309,2.0,13.0,86,0.00,,---,0.00,VWS V13.01,2013-02-08 13:24:00,
2013-02-08 08:29:00,34.5,30.8,29.84,NNW,329,6.0,13.0,86,0.00,,---,0.00,VWS V13.01,2013-02-08 13:29:00,
2013-02-08 08:35:00,34.7,31.0,29.84,WSW,250,8.0,13.0,86,0.00,,---,0.00,VWS V13.01,2013-02-08 13:35:00,
2013-02-08 08:40:00,34.8,31.0,29.84,SE,126,5.0,14.0,86,0.00,,---,0.00,VWS V13.01,2013-02-08 13:40:00,
2013-02-08 08:45:00,34.8,31.3,29.83,North,360,0.0,14.0,87,0.00,,---,0.00,VWS V13.01,2013-02-08 13:45:00,
2013-02-08 08:50:00,34.7,31.2,29.83,ENE,67,4.0,14.0,87,0.00,,---,0.00,VWS V13.01,2013-02-08 13:50:00,
2013-02-08 08:55:00,34.6,31.1,29.83,NNE,30,3.0,14.0,87,0.00,,---,0.00,VWS V13.01,2013-02-08 13:55:00,
2013-02-08 09:00:00,34.6,31.1,29.83,NNW,340,0.0,14.0,87,0.01,,---,0.01,VWS V13.01,2013-02-08 14:00:00,
2013-02-08 09:05:00,34.7,31.5,29.83,NNW,329,0.0,9.0,88,0.01,,---,0.01,VWS V13.01,2013-02-08 14:05:00,
2013-02-08 09:10:00,34.5,31.3,29.83,NW,324,0.0,10.0,88,0.01,,---,0.01,VWS V13.01,2013-02-08 14:10:00,
2013-02-08 09:15:00,34.4,31.2,29.83,NNW,333,0.0,10.0,88,0.01,,---,0.01,VWS V13.01,2013-02-08 14:15:00,
2013-02-08 09:20:00,34.4,31.5,29.82,NNW,345,4.0,10.0,89,0.02,,---,0.02,VWS V13.01,2013-02-08 14:20:00,
2013-02-08 09:26:00,34.1,31.2,29.82,North,350,0.0,10.0,89,0.02,,---,0.02,VWS V13.01,2013-02-08 14:26:00,
2013-02-08 09:31:00,33.9,31.3,29.81,North,10,0.0,0.0,90,0.03,,---,0.03,VWS V13.01,2013-02-08 14:31:00,
2013-02-08 09:36:00,33.7,31.1,29.81,NE,55,0.0,6.0,90,0.04,,---,0.04,VWS V13.01,2013-02-08 14:36:00,
2013-02-08 09:41:00,33.7,31.4,29.81,ENE,58,0.0,6.0,91,0.05,,---,0.05,VWS V13.01,2013-02-08 14:41:00,
2013-02-08 09:46:00,33.7,31.4,29.80,East,86,2.0,7.0,91,0.05,,---,0.06,VWS V13.01,2013-02-08 14:46:00,
2013-02-08 09:51:00,33.7,31.4,29.80,ENE,67,0.0,7.0,91,0.06,,---,0.06,VWS V13.01,2013-02-08 14:51:00,
2013-02-08 09:56:00,33.8,31.5,29.80,ENE,67,0.0,7.0,91,0.06,,---,0.06,VWS V13.01,2013-02-08 14:56:00,
2013-02-08 10:01:00,33.8,31.7,29.81,NE,41,4.0,5.0,92,0.05,,---,0.06,VWS V13.01,2013-02-08 15:01:00,
2013-02-08 10:06:00,33.8,31.7,29.81,NNW,334,2.0,6.0,92,0.05,,---,0.06,VWS V13.01,2013-02-08 15:06:00,
2013-02-08 10:11:00,33.9,31.8,29.80,NNW,335,0.0,6.0,92,0.05,,---,0.06,VWS V13.01,2013-02-08 15:11:00,
2013-02-08 10:17:00,33.9,31.6,29.80,NNW,346,0.0,6.0,91,0.06,,---,0.07,VWS V13.01,2013-02-08 15:17:00,
2013-02-08 10:22:00,33.9,31.6,29.80,NNW,346,2.0,6.0,91,0.06,,---,0.07,VWS V13.01,2013-02-08 15:22:00,
2013-02-08 10:27:00,33.7,31.6,29.79,North,349,5.0,6.0,92,0.07,,---,0.08,VWS V13.01,2013-02-08 15:27:00,
2013-02-08 10:32:00,33.6,31.5,29.79,NNE,26,6.0,6.0,92,0.05,,---,0.08,VWS V13.01,2013-02-08 15:32:00,
2013-02-08 10:37:00,33.6,31.5,29.79,NNE,32,5.0,6.0,92,0.06,,---,0.09,VWS V13.01,2013-02-08 15:37:00,
2013-02-08 10:42:00,33.7,31.6,29.79,NNE,15,0.0,7.0,92,0.07,,---,0.10,VWS V13.01,2013-02-08 15:42:00,
2013-02-08 10:47:00,33.7,31.6,29.80,North,11,0.0,8.0,92,0.07,,---,0.10,VWS V13.01,2013-02-08 15:47:00,
2013-02-08 10:52:00,33.6,31.5,29.79,NNE,23,6.0,9.0,92,0.08,,---,0.11,VWS V13.01,2013-02-08 15:52:00,
2013-02-08 10:57:00,33.6,31.5,29.79,North,9,4.0,9.0,92,0.09,,---,0.12,VWS V13.01,2013-02-08 15:57:00,
2013-02-08 11:03:00,33.4,31.3,29.79,NNE,13,0.0,5.0,92,0.07,,---,0.13,VWS V13.01,2013-02-08 16:03:00,
2013-02-08 11:08:00,33.3,31.2,29.79,North,360,0.0,8.0,92,0.08,,---,0.14,VWS V13.01,2013-02-08 16:08:00,
2013-02-08 11:13:00,33.2,31.4,29.78,North,360,0.0,8.0,93,0.09,,---,0.15,VWS V13.01,2013-02-08 16:13:00,
2013-02-08 11:18:00,33.2,31.4,29.78,North,360,2.0,8.0,93,0.10,,---,0.16,VWS V13.01,2013-02-08 16:18:00,
2013-02-08 11:23:00,33.2,31.4,29.78,North,360,0.0,8.0,93,0.11,,---,0.17,VWS V13.01,2013-02-08 16:23:00,
2013-02-08 11:28:00,33.3,31.5,29.78,North,360,0.0,8.0,93,0.12,,---,0.18,VWS V13.01,2013-02-08 16:28:00,
2013-02-08 11:33:00,33.3,31.5,29.78,North,360,0.0,1.0,93,0.11,,---,0.19,VWS V13.01,2013-02-08 16:33:00,
2013-02-08 11:38:00,33.3,31.5,29.77,NNW,329,0.0,6.0,93,0.12,,---,0.20,VWS V13.01,2013-02-08 16:38:00,
2013-02-08 11:43:00,33.4,31.6,29.77,NNW,327,0.0,6.0,93,0.13,,---,0.21,VWS V13.01,2013-02-08 16:43:00,
2013-02-08 11:48:00,33.4,31.6,29.77,NNW,327,0.0,6.0,93,0.14,,---,0.22,VWS V13.01,2013-02-08 16:48:00,
2013-02-08 11:53:00,33.5,31.7,29.77,NNW,328,0.0,6.0,93,0.14,,---,0.22,VWS V13.01,2013-02-08 16:53:00,
2013-02-08 11:59:00,33.7,31.9,29.76,NNW,327,0.0,6.0,93,0.15,,---,0.23,VWS V13.01,2013-02-08 16:59:00,
2013-02-08 12:04:00,33.7,31.9,29.76,NNW,327,0.0,5.0,93,0.10,,---,0.23,VWS V13.01,2013-02-08 17:04:00,
2013-02-08 12:09:00,33.6,31.8,29.76,NNW,328,4.0,6.0,93,0.11,,---,0.24,VWS V13.01,2013-02-08 17:09:00,
2013-02-08 12:14:00,33.5,31.7,29.75,NNW,328,0.0,6.0,93,0.12,,---,0.25,VWS V13.01,2013-02-08 17:14:00,
2013-02-08 12:19:00,33.4,31.6,29.75,NNW,328,0.0,6.0,93,0.13,,---,0.26,VWS V13.01,2013-02-08 17:19:00,
2013-02-08 12:25:00,33.3,31.5,29.75,NNW,327,6.0,7.0,93,0.13,,---,0.26,VWS V13.01,2013-02-08 17:25:00,
2013-02-08 12:30:00,33.1,31.3,29.75,NW,315,6.0,8.0,93,0.14,,---,0.27,VWS V13.01,2013-02-08 17:30:00,
2013-02-08 12:35:00,33.0,31.5,29.75,NW,314,4.0,7.0,94,0.09,,---,0.28,VWS V13.01,2013-02-08 17:35:00,
2013-02-08 12:40:00,33.0,31.5,29.75,NW,314,4.0,7.0,94,0.09,,---,0.28,VWS V13.01,2013-02-08 17:40:00,
2013-02-08 12:46:00,33.0,31.5,29.75,WNW,295,7.0,9.0,94,0.09,,---,0.28,VWS V13.01,2013-02-08 17:46:00,
2013-02-08 12:51:00,33.3,31.8,29.74,NW,309,5.0,9.0,94,0.09,,---,0.28,VWS V13.01,2013-02-08 17:51:00,
2013-02-08 12:56:00,33.4,31.9,29.74,NW,309,0.0,9.0,94,0.09,,---,0.28,VWS V13.01,2013-02-08 17:56:00,
2013-02-08 13:01:00,33.5,32.0,29.75,NW,309,0.0,0.0,94,0.05,,---,0.28,VWS V13.01,2013-02-08 18:01:00,
2013-02-08 13:06:00,33.5,32.0,29.74,NW,309,1.0,5.0,94,0.05,,---,0.28,VWS V13.01,2013-02-08 18:06:00,
2013-02-08 13:11:00,33.8,32.3,29.74,NW,307,2.0,7.0,94,0.06,,---,0.29,VWS V13.01,2013-02-08 18:11:00,
2013-02-08 13:17:00,34.0,32.5,29.74,WNW,299,1.0,11.0,94,0.06,,---,0.29,VWS V13.01,2013-02-08 18:17:00,
2013-02-08 13:22:00,34.1,32.3,29.75,WNW,283,6.0,11.0,93,0.06,,---,0.29,VWS V13.01,2013-02-08 18:22:00,
2013-02-08 13:27:00,34.1,32.3,29.75,West,281,3.0,11.0,93,0.06,,---,0.29,VWS V13.01,2013-02-08 18:27:00,
2013-02-08 13:32:00,34.1,32.3,29.75,West,280,11.0,14.0,93,0.02,,---,0.29,VWS V13.01,2013-02-08 18:32:00,
2013-02-08 13:37:00,34.2,32.4,29.75,West,276,8.0,14.0,93,0.02,,---,0.29,VWS V13.01,2013-02-08 18:37:00,
2013-02-08 13:43:00,34.2,32.4,29.75,WNW,284,7.0,14.0,93,0.02,,---,0.29,VWS V13.01,2013-02-08 18:43:00,
2013-02-08 13:48:00,34.1,32.3,29.75,West,265,8.0,18.0,93,0.02,,---,0.29,VWS V13.01,2013-02-08 18:48:00,
2013-02-08 13:55:00,33.9,32.1,29.75,WSW,253,7.0,18.0,93,0.02,,---,0.29,VWS V13.01,2013-02-08 18:55:00,
2013-02-08 14:00:00,33.8,32.0,29.75,West,261,10.0,18.0,93,0.02,,---,0.29,VWS V13.01,2013-02-08 19:00:00,
2013-02-08 14:05:00,33.5,31.7,29.75,West,281,14.0,18.0,93,0.01,,---,0.29,VWS V13.01,2013-02-08 19:05:00,
2013-02-08 14:10:00,33.3,31.5,29.75,WNW,284,13.0,18.0,93,0.01,,---,0.29,VWS V13.01,2013-02-08 19:10:00,
2013-02-08 14:15:00,33.1,31.3,29.76,West,279,9.0,18.0,93,0.01,,---,0.29,VWS V13.01,2013-02-08 19:15:00,
2013-02-08 14:20:00,32.9,31.4,29.77,West,277,10.0,18.0,94,0.01,,---,0.29,VWS V13.01,2013-02-08 19:20:00,
2013-02-08 14:25:00,32.6,30.8,29.77,WNW,284,14.0,22.0,93,0.01,,---,0.29,VWS V13.01,2013-02-08 19:25:00,
2013-02-08 14:31:00,32.6,30.5,29.77,West,275,14.0,14.0,92,0.01,,---,0.29,VWS V13.01,2013-02-08 19:31:00,
2013-02-08 14:36:00,32.5,30.4,29.77,West,277,14.0,22.0,92,0.00,,---,0.29,VWS V13.01,2013-02-08 19:36:00,
2013-02-08 14:41:00,32.3,30.0,29.77,WNW,292,12.0,22.0,91,0.00,,---,0.29,VWS V13.01,2013-02-08 19:41:00,
2013-02-08 14:46:00,32.2,29.9,29.77,WSW,254,10.0,22.0,91,0.00,,---,0.29,VWS V13.01,2013-02-08 19:46:00,
2013-02-08 14:51:00,32.0,29.7,29.78,West,279,14.0,22.0,91,0.00,,---,0.29,VWS V13.01,2013-02-08 19:51:00,
2013-02-08 14:56:00,31.7,29.4,29.78,WSW,246,13.0,22.0,91,0.00,,---,0.29,VWS V13.01,2013-02-08 19:56:00,
2013-02-08 15:01:00,31.5,29.5,29.78,NW,304,16.0,16.0,92,0.00,,---,0.29,VWS V13.01,2013-02-08 20:01:00,
2013-02-08 15:06:00,31.1,29.0,29.79,West,273,11.0,23.0,92,0.00,,---,0.29,VWS V13.01,2013-02-08 20:06:00,
2013-02-08 15:12:00,30.6,28.6,29.79,West,263,11.0,23.0,92,0.00,,---,0.29,VWS V13.01,2013-02-08 20:12:00,
2013-02-08 15:17:00,30.2,28.2,29.79,WSW,253,16.0,25.0,92,0.00,,---,0.29,VWS V13.01,2013-02-08 20:17:00,
2013-02-08 15:22:00,30.0,28.0,29.79,West,275,16.0,25.0,92,0.00,,---,0.29,VWS V13.01,2013-02-08 20:22:00,
2013-02-08 15:27:00,29.8,27.8,29.80,WNW,297,14.0,25.0,92,0.00,,---,0.29,VWS V13.01,2013-02-08 20:27:00,
2013-02-08 15:32:00,29.5,27.5,29.81,West,273,15.0,19.0,92,0.00,,---,0.29,VWS V13.01,2013-02-08 20:32:00,
2013-02-08 15:37:00,28.9,26.9,29.80,West,267,13.0,28.0,92,0.00,,---,0.29,VWS V13.01,2013-02-08 20:37:00,
2013-02-08 15:42:00,28.7,26.7,29.81,WSW,247,14.0,28.0,92,0.00,,---,0.29,VWS V13.01,2013-02-08 20:42:00,
2013-02-08 15:47:00,28.5,26.5,29.81,West,263,13.0,28.0,92,0.00,,---,0.29,VWS V13.01,2013-02-08 20:47:00,
2013-02-08 15:52:00,28.4,26.4,29.81,WSW,253,15.0,28.0,92,0.00,,---,0.29,VWS V13.01,2013-02-08 20:52:00,
2013-02-08 15:57:00,28.3,26.3,29.82,WSW,253,12.0,28.0,92,0.00,,---,0.29,VWS V13.01,2013-02-08 20:57:00,
2013-02-08 16:03:00,28.3,26.3,29.82,West,276,12.0,21.0,92,0.00,,---,0.29,VWS V13.01,2013-02-08 21:03:00,
2013-02-08 16:08:00,28.0,25.7,29.83,WSW,246,19.0,22.0,91,0.00,,---,0.29,VWS V13.01,2013-02-08 21:08:00,
2013-02-08 16:13:00,28.1,26.1,29.84,NW,308,21.0,28.0,92,0.00,,---,0.29,VWS V13.01,2013-02-08 21:13:00,
2013-02-08 16:18:00,27.3,24.8,29.86,WNW,292,19.0,28.0,90,0.00,,---,0.29,VWS V13.01,2013-02-08 21:18:00,
2013-02-08 16:23:00,26.2,23.4,29.88,WNW,296,14.0,28.0,89,0.00,,---,0.29,VWS V13.01,2013-02-08 21:23:00,
2013-02-08 16:28:00,25.2,22.4,29.89,NW,313,9.0,28.0,89,0.00,,---,0.29,VWS V13.01,2013-02-08 21:28:00,
2013-02-08 16:33:00,24.1,21.1,29.90,NNW,336,16.0,25.0,88,0.00,,---,0.29,VWS V13.01,2013-02-08 21:33:00,
2013-02-08 16:38:00,23.1,20.1,29.90,NW,315,13.0,30.0,88,0.00,,---,0.29,VWS V13.01,2013-02-08 21:38:00,
2013-02-08 16:43:00,22.7,19.7,29.91,NW,317,16.0,30.0,88,0.00,,---,0.29,VWS V13.01,2013-02-08 21:43:00,
2013-02-08 16:48:00,22.3,19.3,29.92,NNW,340,23.0,30.0,88,0.00,,---,0.29,VWS V13.01,2013-02-08 21:48:00,
2013-02-08 16:54:00,22.1,19.1,29.92,NW,312,18.0,30.0,88,0.00,,---,0.29,VWS V13.01,2013-02-08 21:54:00,
2013-02-08 16:59:00,21.7,18.4,29.93,West,281,18.0,30.0,87,0.00,,---,0.29,VWS V13.01,2013-02-08 21:59:00,
2013-02-08 17:04:00,21.3,17.8,29.94,NW,318,14.0,22.0,86,0.00,,---,0.29,VWS V13.01,2013-02-08 22:04:00,
2013-02-08 17:09:00,21.1,17.8,29.94,NW,322,10.0,22.0,87,0.00,,---,0.29,VWS V13.01,2013-02-08 22:09:00,
2013-02-08 17:14:00,21.0,17.5,29.95,NW,321,14.0,22.0,86,0.00,,---,0.29,VWS V13.01,2013-02-08 22:14:00,
2013-02-08 17:19:00,20.8,17.0,29.96,NW,304,21.0,23.0,85,0.00,,---,0.29,VWS V13.01,2013-02-08 22:19:00,
2013-02-08 17:24:00,20.7,16.6,29.96,NW,304,19.0,24.0,84,0.00,,---,0.29,VWS V13.01,2013-02-08 22:24:00,
2013-02-08 17:29:00,20.4,16.1,29.97,NW,309,16.0,27.0,83,0.00,,---,0.29,VWS V13.01,2013-02-08 22:29:00,
2013-02-08 17:35:00,20.3,16.0,29.97,WNW,292,20.0,23.0,83,0.00,,---,0.29,VWS V13.01,2013-02-08 22:35:00,
2013-02-08 17:40:00,20.2,15.9,29.98,WNW,290,15.0,23.0,83,0.00,,---,0.29,VWS V13.01,2013-02-08 22:40:00,
2013-02-08 17:45:00,20.1,16.0,29.98,WNW,283,11.0,25.0,84,0.00,,---,0.29,VWS V13.01,2013-02-08 22:45:00,
2013-02-08 17:50:00,20.0,15.9,29.98,NW,318,7.0,25.0,84,0.00,,---,0.29,VWS V13.01,2013-02-08 22:50:00,
2013-02-08 17:55:00,19.9,15.9,29.99,NNW,345,6.0,25.0,84,0.00,,---,0.29,VWS V13.01,2013-02-08 22:55:00,
2013-02-08 18:00:00,19.9,15.9,29.99,NNW,327,2.0,25.0,84,0.00,,---,0.29,VWS V13.01,2013-02-08 23:00:00,
2013-02-08 18:05:00,19.7,15.4,30.00,WNW,303,8.0,15.0,83,0.00,,---,0.29,VWS V13.01,2013-02-08 23:05:00,
2013-02-08 18:10:00,19.7,15.4,30.00,NW,323,6.0,18.0,83,0.00,,---,0.29,VWS V13.01,2013-02-08 23:10:00,
2013-02-08 18:15:00,19.7,15.4,30.01,NW,307,10.0,20.0,83,0.00,,---,0.29,VWS V13.01,2013-02-08 23:15:00,
2013-02-08 18:20:00,19.7,15.4,30.01,NW,321,6.0,20.0,83,0.00,,---,0.29,VWS V13.01,2013-02-08 23:20:00,
2013-02-08 18:25:00,19.5,15.2,30.02,NNW,346,10.0,20.0,83,0.00,,---,0.29,VWS V13.01,2013-02-08 23:25:00,
2013-02-08 18:31:00,19.4,15.1,30.03,North,355,10.0,14.0,83,0.00,,---,0.29,VWS V13.01,2013-02-08 23:31:00,
2013-02-08 18:36:00,19.3,15.0,30.03,North,355,0.0,14.0,83,0.00,,---,0.29,VWS V13.01,2013-02-08 23:36:00,
2013-02-08 18:41:00,19.1,14.8,30.03,NNW,346,5.0,14.0,83,0.00,,---,0.29,VWS V13.01,2013-02-08 23:41:00,
2013-02-08 18:46:00,19.1,14.8,30.03,NW,304,11.0,14.0,83,0.00,,---,0.29,VWS V13.01,2013-02-08 23:46:00,
2013-02-08 18:51:00,19.0,14.7,30.04,NW,306,11.0,14.0,83,0.00,,---,0.29,VWS V13.01,2013-02-08 23:51:00,
2013-02-08 18:56:00,18.9,14.9,30.04,WNW,301,9.0,14.0,84,0.00,,---,0.29,VWS V13.01,2013-02-08 23:56:00,
2013-02-08 19:01:00,18.8,14.8,30.05,NW,309,10.0,13.0,84,0.00,,---,0.29,VWS V13.01,2013-02-09 00:01:00,
2013-02-08 19:06:00,18.6,14.6,30.05,NNW,327,0.0,13.0,84,0.00,,---,0.29,VWS V13.01,2013-02-09 00:06:00,
2013-02-08 19:11:00,18.5,14.5,30.06,NW,318,5.0,13.0,84,0.00,,---,0.29,VWS V13.01,2013-02-09 00:11:00,
2013-02-08 19:16:00,18.5,14.8,30.06,NW,310,4.0,13.0,85,0.00,,---,0.29,VWS V13.01,2013-02-09 00:16:00,
2013-02-08 19:22:00,18.3,14.6,30.06,NW,320,3.0,13.0,85,0.00,,---,0.29,VWS V13.01,2013-02-09 00:22:00,
2013-02-08 19:27:00,18.2,14.5,30.07,NW,304,6.0,13.0,85,0.00,,---,0.29,VWS V13.01,2013-02-09 00:27:00,
2013-02-08 19:32:00,18.1,14.4,30.07,NW,306,10.0,11.0,85,0.00,,---,0.29,VWS V13.01,2013-02-09 00:32:00,
2013-02-08 19:37:00,18.0,14.3,30.08,NW,304,9.0,14.0,85,0.00,,---,0.29,VWS V13.01,2013-02-09 00:37:00,
2013-02-08 19:42:00,18.0,14.3,30.08,NW,304,5.0,14.0,85,0.00,,---,0.29,VWS V13.01,2013-02-09 00:42:00,
2013-02-08 19:47:00,18.0,14.3,30.08,NW,304,4.0,14.0,85,0.00,,---,0.29,VWS V13.01,2013-02-09 00:47:00,
2013-02-08 19:52:00,18.0,14.3,30.08,WNW,298,8.0,14.0,85,0.00,,---,0.29,VWS V13.01,2013-02-09 00:52:00,
2013-02-08 19:57:00,18.0,14.5,30.09,NW,307,5.0,14.0,86,0.00,,---,0.29,VWS V13.01,2013-02-09 00:57:00,
2013-02-08 20:02:00,18.0,14.5,30.09,NW,309,10.0,12.0,86,0.00,,---,0.29,VWS V13.01,2013-02-09 01:02:00,
2013-02-08 20:07:00,17.9,14.4,30.09,NW,307,8.0,13.0,86,0.00,,---,0.29,VWS V13.01,2013-02-09 01:07:00,
2013-02-08 20:12:00,18.0,14.5,30.09,NW,304,11.0,13.0,86,0.00,,---,0.29,VWS V13.01,2013-02-09 01:12:00,
2013-02-08 20:18:00,17.9,14.4,30.09,NW,313,8.0,13.0,86,0.00,,---,0.29,VWS V13.01,2013-02-09 01:18:00,
2013-02-08 20:23:00,17.9,14.4,30.10,NW,315,4.0,13.0,86,0.00,,---,0.29,VWS V13.01,2013-02-09 01:23:00,
2013-02-08 20:28:00,17.9,14.4,30.10,NW,323,6.0,13.0,86,0.00,,---,0.29,VWS V13.01,2013-02-09 01:28:00,
2013-02-08 20:33:00,17.9,14.4,30.10,NW,309,13.0,13.0,86,0.00,,---,0.29,VWS V13.01,2013-02-09 01:33:00,
2013-02-08 20:38:00,17.8,14.3,30.11,NNW,345,6.0,13.0,86,0.00,,---,0.29,VWS V13.01,2013-02-09 01:38:00,
2013-02-08 20:43:00,17.7,14.2,30.11,WNW,299,7.0,13.0,86,0.00,,---,0.29,VWS V13.01,2013-02-09 01:43:00,
2013-02-08 20:48:00,17.7,14.5,30.11,NW,319,4.0,13.0,87,0.00,,---,0.29,VWS V13.01,2013-02-09 01:48:00,
2013-02-08 20:54:00,17.6,14.7,30.11,NW,310,5.0,13.0,88,0.00,,---,0.29,VWS V13.01,2013-02-09 01:54:00,
2013-02-08 20:59:00,17.6,14.7,30.12,NNW,327,8.0,13.0,88,0.00,,---,0.29,VWS V13.01,2013-02-09 01:59:00,
2013-02-08 21:04:00,17.5,14.6,30.12,North,360,3.0,9.0,88,0.00,,---,0.29,VWS V13.01,2013-02-09 02:04:00,
2013-02-08 21:09:00,17.5,14.6,30.13,NNE,12,9.0,11.0,88,0.00,,---,0.29,VWS V13.01,2013-02-09 02:09:00,
2013-02-08 21:14:00,17.3,14.4,30.13,NNW,338,3.0,18.0,88,0.00,,---,0.29,VWS V13.01,2013-02-09 02:14:00,
2013-02-08 21:19:00,17.2,14.3,30.13,NNW,344,4.0,18.0,88,0.00,,---,0.29,VWS V13.01,2013-02-09 02:19:00,
2013-02-08 21:25:00,17.0,13.8,30.14,NW,319,4.0,18.0,87,0.00,,---,0.29,VWS V13.01,2013-02-09 02:25:00,
2013-02-08 21:30:00,16.8,13.6,30.15,NW,313,4.0,18.0,87,0.00,,---,0.29,VWS V13.01,2013-02-09 02:30:00,
2013-02-08 21:35:00,16.7,13.2,30.15,NNW,340,3.0,12.0,86,0.00,,---,0.29,VWS V13.01,2013-02-09 02:35:00,
2013-02-08 21:40:00,16.6,13.1,30.15,NW,316,4.0,12.0,86,0.00,,---,0.29,VWS V13.01,2013-02-09 02:40:00,
2013-02-08 21:45:00,16.4,12.7,30.16,NW,309,9.0,12.0,85,0.00,,---,0.29,VWS V13.01,2013-02-09 02:45:00,
2013-02-08 21:50:00,16.3,12.6,30.16,NW,321,3.0,12.0,85,0.00,,---,0.29,VWS V13.01,2013-02-09 02:50:00,
2013-02-08 21:56:00,16.2,12.5,30.16,WNW,294,1.0,12.0,85,0.00,,---,0.29,VWS V13.01,2013-02-09 02:56:00,
2013-02-08 22:01:00,16.1,12.7,30.16,WNW,303,2.0,7.0,86,0.00,,---,0.29,VWS V13.01,2013-02-09 03:01:00,
2013-02-08 22:06:00,16.1,12.7,30.17,NW,309,2.0,7.0,86,0.00,,---,0.29,VWS V13.01,2013-02-09 03:06:00,
2013-02-08 22:11:00,16.2,12.8,30.17,NW,323,6.0,13.0,86,0.00,,---,0.29,VWS V13.01,2013-02-09 03:11:00,
2013-02-08 22:16:00,16.1,12.4,30.18,NNW,337,2.0,13.0,85,0.00,,---,0.29,VWS V13.01,2013-02-09 03:16:00,
2013-02-08 22:21:00,16.0,12.3,30.18,NNW,334,4.0,13.0,85,0.00,,---,0.29,VWS V13.01,2013-02-09 03:21:00,
2013-02-08 22:26:00,16.0,12.3,30.18,NW,311,2.0,14.0,85,0.00,,---,0.29,VWS V13.01,2013-02-09 03:26:00,
2013-02-08 22:32:00,15.9,12.2,30.18,NW,317,5.0,6.0,85,0.00,,---,0.29,VWS V13.01,2013-02-09 03:32:00,
2013-02-08 22:37:00,15.8,12.1,30.19,NW,326,6.0,12.0,85,0.00,,---,0.29,VWS V13.01,2013-02-09 03:37:00,
2013-02-08 22:42:00,15.8,12.1,30.19,NW,325,5.0,12.0,85,0.00,,---,0.29,VWS V13.01,2013-02-09 03:42:00,
2013-02-08 22:47:00,15.8,12.1,30.19,North,355,0.0,12.0,85,0.00,,---,0.29,VWS V13.01,2013-02-09 03:47:00,
2013-02-08 22:52:00,15.8,12.1,30.19,NW,310,5.0,12.0,85,0.00,,---,0.29,VWS V13.01,2013-02-09 03:52:00,
2013-02-08 22:57:00,15.8,12.1,30.19,NW,309,4.0,12.0,85,0.00,,---,0.29,VWS V13.01,2013-02-09 03:57:00,
2013-02-08 23:02:00,15.6,11.9,30.19,NW,321,1.0,8.0,85,0.00,,---,0.29,VWS V13.01,2013-02-09 04:02:00,
2013-02-08 23:08:00,15.5,12.1,30.20,NW,321,0.0,8.0,86,0.00,,---,0.29,VWS V13.01,2013-02-09 04:08:00,
2013-02-08 23:13:00,15.4,11.7,30.20,NW,321,4.0,8.0,85,0.00,,---,0.29,VWS V13.01,2013-02-09 04:13:00,
2013-02-08 23:18:00,15.2,11.8,30.20,WNW,294,7.0,8.0,86,0.00,,---,0.29,VWS V13.01,2013-02-09 04:18:00,
2013-02-08 23:23:00,15.0,11.6,30.20,North,360,6.0,11.0,86,0.00,,---,0.29,VWS V13.01,2013-02-09 04:23:00,
2013-02-08 23:28:00,15.1,11.7,30.20,NNW,340,2.0,11.0,86,0.00,,---,0.29,VWS V13.01,2013-02-09 04:28:00,
2013-02-08 23:34:00,15.0,11.6,30.21,WNW,290,6.0,10.0,86,0.00,,---,0.29,VWS V13.01,2013-02-09 04:34:00,
2013-02-08 23:39:00,15.0,11.3,30.21,WNW,294,4.0,10.0,85,0.00,,---,0.29,VWS V13.01,2013-02-09 04:39:00,
2013-02-08 23:44:00,14.9,11.2,30.21,WNW,294,2.0,10.0,85,0.00,,---,0.29,VWS V13.01,2013-02-09 04:44:00,
2013-02-08 23:49:00,14.9,11.5,30.21,WNW,303,5.0,10.0,86,0.00,,---,0.29,VWS V13.01,2013-02-09 04:49:00,
2013-02-08 23:54:00,14.8,11.1,30.21,NW,322,0.0,10.0,85,0.00,,---,0.29,VWS V13.01,2013-02-09 04:54:00,
2013-02-08 23:59:00,14.8,11.1,30.22,NNW,348,7.0,10.0,85,0.00,,---,0.29,VWS V13.01,2013-02-09 04:59:00,